Regional Weather Roundup
Issued by NWS Binghamton, NY

Home | Current Version | Previous Version | Text Only | Print | Product List | Glossary On
Versions: 1 2 3 4 5 6 7 8 9 10 11 12 13 14 15 16 17 18 19 20 21 22 23 24 25 26 27 28 29 30 31 32 33 34 35 36 37 38 39 40 41 42 43 44 45 46 47 48 49 50
249
ASUS41 KBGM 250510
RWRBGM

REGIONAL WEATHER ROUNDUP
NATIONAL WEATHER SERVICE BINGHAMTON NY
100 AM EDT MON SEP 25 2017

Note: "fair" indicates few or no clouds below 12,000 feet with no
significant weather and/or obstructions to visibility.

* = Station(s) that does not report precipitation, such as rain,
snow, etc, also no thunder or fog.

NYZ009-015>018-022>025-036-037-044>046-055>057-062-250600
...Central New York...

CITY           SKY/WX    TMP DP  RH WIND       PRES   REMARKS
Binghamton     CLEAR     66  64  93 CALM      30.14F
Cortland       FAIR      63  63 100 CALM      30.14S FOG
Dansville      CLEAR     67  64  90 SE6       30.13S
Elmira         CLEAR     64  64 100 CALM      30.12S FOG
Seneca Falls   CLEAR     64  64 100 CALM      30.10S FOG
Ithaca         CLEAR     65  64  97 E5        30.14  FOG
Hamilton       PTCLDY    57  55  94 CALM      30.14S
Hornell        CLEAR     63  61  94 S3        30.19S FOG
Monticello     CLEAR     69  63  81 NW7       30.13F
Penn Yan       CLEAR     68  65  90 SW3       30.13S
Rome           PTCLDY    65  64  97 CALM      30.11S
Sidney         FOG      N/A N/A N/A CALM      30.14S VSB 1/4
Syracuse       CLEAR     68  66  93 SE3       30.08F
$$

PAZ038>040-043-044-047-048-072-250600
...Northeast Pennsylvania...

CITY           SKY/WX    TMP DP  RH WIND       PRES   REMARKS
Hazleton         N/A     63  55  77 CALM      30.15F HAZE
Scranton       CLEAR     69  65  86 E6        30.10F
$$
&&
KEY
WCI = Wind Chill Index
VSB = Visibility
HX  = Heat Index
$$




USA.gov is the U.S. government's official web portal to all federal, state and local government web resources and services.